Upernavik Sermeq

KL  EN  DA
ASIAQ
Weather Now GREENLAND SURVEY
Updated [WGT/WGST] Temperature [°C] Wind [m/s] Air pressure [hPa] Relative humidity [%] Precipitation [mm]
Present Wind chill Speed Max
27.09 02:00n/an/an/an/an/an/an/a
27.09 01:00-6,7-9,71,7 ⇖n/a99972n/a
27.09 00:00-6,2-9,41,8 ⇖n/a99970n/a
26.09 23:00-6,1-9,72,1 ⇖n/a99977n/a
26.09 22:00-6,1-9,72,1 ⇐n/a99976n/a
26.09 21:00-6,6-9,31,5 ⇐n/a99973n/a
26.09 20:00-6,1-9,51,9 ⇖n/a99871n/a
26.09 19:00-5,5-8,71,9 ⇐n/a99867n/a
26.09 18:00-5,3-9,22,4 ⇐n/a99866n/a
26.09 17:00-5,5-8,82,0 ⇐n/a99868n/a
26.09 16:00-5,70,01,2 ⇖n/a99766n/a
26.09 15:00-5,6-8,01,4 ⇐n/a99767n/a
26.09 14:00-5,60,01,1 ⇐n/a99764n/a
26.09 13:00-6,00,01,2 ⇐n/a99761n/a
26.09 12:00-6,20,00,5 ⇖n/a99757n/a
26.09 11:00-6,6-10,01,9 ⇑n/a99759n/a
26.09 10:00-7,9-12,52,5 ⇐n/a99761n/a
26.09 09:00-8,1-13,93,6 ⇖n/a99763n/a
26.09 08:00-8,0-12,82,8 ⇖n/a99763n/a
26.09 07:00-7,8-12,52,7 ⇖n/a99760n/a
26.09 06:00-8,4-14,33,8 ⇖n/a99761n/a
26.09 05:00-8,4-15,34,8 ⇖n/a99764n/a
26.09 04:00-9,0-15,74,4 ⇖n/a99780n/a
26.09 03:00-8,2-12,72,5 ⇑n/a99673n/a
26.09 02:00-7,8-14,14,4 ⇑n/a99659n/a
Position: (72.8932,-54.2955)

[Back]